FW7828 Weather Reports


time (UTC)temp
C
wind
direction
speed
KPH
gust
KPH
rain 1hr
cm
rain 24hr
cm
rain mn
cm
humidity
%
barometer
mb
20260904125340 27 196 4.8 8.0 0.00 0.00 0.00 86 1013.7
20260904124839 27 196 1.6 1.6 0.00 0.00 0.00 86 1013.8
20260904124336 27 183 1.6 3.2 0.00 0.00 0.00 87 1014.0
20260904123830 26 166 0.0 1.6 0.00 0.00 0.00 87 1014.1
20260904123326 26 117 3.2 3.2 0.00 0.00 0.00 88 1014.1
20260904122821 26 24 0.0 0.0 0.00 0.00 0.00 88 1014.1
20260904122320 26 31 0.0 0.0 0.00 0.00 0.00 89 1014.3
20260904121816 26 124 3.2 3.2 0.00 0.00 0.00 89 1014.3
20260904121312 26 259 0.0 0.0 0.00 0.00 0.00 89 1014.2
20260904120808 26 129 4.8 4.8 0.00 0.00 0.00 90 1014.2
20260904120303 26 78 1.6 1.6 0.00 0.00 0.00 90 1014.4
20260904115758 26 202 0.0 1.6 0.00 0.00 0.00 90 1014.0
20260904115254 26 211 3.2 3.2 0.00 0.00 0.00 90 1013.8
20260904114748 26 349 0.0 1.6 0.00 0.00 0.00 90 1014.0
20260904114248 26 146 0.0 1.6 0.00 0.00 0.00 90 1014.0
20260904113743 26 301 0.0 1.6 0.00 0.00 0.00 91 1014.0
20260904113242 26 3 0.0 0.0 0.00 0.00 0.00 91 1014.2
20260904112737 26 43 4.8 8.0 0.00 0.00 0.00 91 1013.7
20260904112233 26 330 0.0 0.0 0.00 0.00 0.00 91 1013.8
20260904111729 26 158 1.6 3.2 0.00 0.00 0.00 91 1013.9
20260904111224 26 123 1.6 1.6 0.00 0.00 0.00 91 1013.9
20260904110720 26 98 0.0 0.0 0.00 0.00 0.00 91 1013.7
20260904110219 26 334 3.2 3.2 0.00 0.00 0.00 91 1013.8
20260904105714 26 212 1.6 1.6 0.00 0.00 0.00 91 1013.7
20260904105209 26 194 1.6 1.6 0.00 0.00 0.00 91 1013.7
20260904104704 26 166 1.6 1.6 0.00 0.00 0.00 91 1013.9
20260904104200 26 354 1.6 1.6 0.00 0.00 0.00 91 1013.6
20260904103656 26 248 3.2 3.2 0.00 0.00 0.00 91 1013.4
20260904103151 26 345 0.0 1.6 0.00 0.00 0.00 91 1013.6
20260904102647 26 323 3.2 3.2 0.00 0.00 0.00 91 1013.5
20260904102142 26 358 1.6 1.6 0.00 0.00 0.00 91 1013.6
20260904101639 26 326 1.6 3.2 0.00 0.00 0.00 91 1013.6
20260904101134 26 148 0.0 1.6 0.00 0.00 0.00 91 1013.9
20260904100630 26 101 1.6 3.2 0.00 0.00 0.00 91 1013.8
20260904100125 26 147 4.8 9.7 0.00 0.00 0.00 91 1013.8
20260904095619 26 316 1.6 3.2 0.00 0.00 0.00 92 1013.6
20260904095114 26 344 1.6 1.6 0.00 0.00 0.00 92 1013.7
20260904094609 26 291 0.0 1.6 0.00 0.00 0.00 91 1014.0
20260904094104 26 357 0.0 0.0 0.00 0.00 0.00 91 1013.6
20260904093601 26 342 0.0 0.0 0.00 0.00 0.00 91 1013.8
20260904093101 26 9 0.0 0.0 0.00 0.00 0.00 91 1013.6
20260904092557 26 229 1.6 3.2 0.00 0.00 0.00 91 1013.7
20260904092053 26 332 1.6 1.6 0.00 0.00 0.00 91 1013.9
20260904091549 26 143 4.8 4.8 0.00 0.00 0.00 91 1013.9
20260904091048 26 349 0.0 0.0 0.00 0.00 0.00 91 1013.9
20260904090544 26 294 1.6 1.6 0.00 0.00 0.00 90 1013.7
20260904090039 26 4 3.2 3.2 0.00 0.00 0.00 90 1013.5
20260904085534 26 5 0.0 1.6 0.00 0.00 0.00 90 1013.6
20260904085034 26 54 1.6 3.2 0.00 0.00 0.00 90 1013.7
20260904084530 26 211 1.6 1.6 0.00 0.00 0.00 90 1013.7
20260904084026 26 344 1.6 4.8 0.00 0.00 0.00 90 1013.5
20260904083522 26 163 1.6 1.6 0.00 0.00 0.00 90 1013.7
20260904083017 26 315 1.6 1.6 0.00 0.00 0.00 90 1013.6
20260904082512 26 34 0.0 0.0 0.00 0.00 0.00 90 1013.5
20260904082007 26 282 1.6 3.2 0.00 0.00 0.00 90 1013.8
20260904081503 26 300 0.0 1.6 0.00 0.00 0.00 90 1013.8
20260904080958 26 348 0.0 1.6 0.00 0.00 0.00 90 1013.6
20260904080453 26 230 3.2 3.2 0.00 0.00 0.00 90 1013.7
20260904075949 26 259 0.0 0.0 0.00 0.00 0.00 90 1013.5
20260904075445 26 252 0.0 1.6 0.00 0.00 0.00 90 1013.8
20260904074944 26 330 1.6 3.2 0.00 0.00 0.00 90 1013.6
20260904074439 26 350 0.0 1.6 0.00 0.00 0.00 90 1013.6
20260904073934 26 124 1.6 3.2 0.00 0.00 0.00 90 1013.6
20260904073430 26 255 1.6 3.2 0.00 0.00 0.00 89 1013.8
20260904072925 26 303 0.0 0.0 0.00 0.00 0.00 89 1013.8
20260904072420 26 229 1.6 3.2 0.00 0.00 0.00 90 1013.7
20260904071915 26 324 1.6 1.6 0.00 0.00 0.00 90 1013.7
20260904071411 26 28 0.0 1.6 0.00 0.00 0.00 89 1013.5
20260904070906 26 293 1.6 1.6 0.00 0.00 0.00 90 1013.6
20260904070405 26 301 1.6 1.6 0.00 0.00 0.00 90 1013.6
20260904065904 26 283 1.6 3.2 0.00 0.00 0.00 90 1013.7
20260904065401 26 146 1.6 1.6 0.00 0.00 0.00 90 1013.6
20260904064900 26 210 0.0 1.6 0.00 0.00 0.00 90 1013.5
20260904064357 26 238 0.0 0.0 0.00 0.00 0.00 90 1013.5
20260904063852 26 359 0.0 1.6 0.00 0.00 0.00 90 1013.6
20260904063348 26 269 1.6 1.6 0.00 0.00 0.00 90 1013.4
20260904062843 26 307 0.0 0.0 0.00 0.00 0.00 90 1013.5
20260904062340 26 293 1.6 3.2 0.00 0.00 0.00 90 1013.5
20260904061835 26 162 0.0 1.6 0.00 0.00 0.00 90 1013.5
20260904061331 26 97 0.0 1.6 0.00 0.00 0.00 90 1013.9
20260904060827 26 204 0.0 0.0 0.00 0.00 0.00 90 1014.0
20260904060323 26 158 1.6 1.6 0.00 0.00 0.00 90 1014.0
20260904055818 26 9 0.0 0.0 0.00 0.00 0.00 90 1014.0
20260904055313 26 336 1.6 1.6 0.00 0.00 0.00 90 1014.2
20260904054803 26 262 1.6 1.6 0.00 0.00 0.00 90 1014.1
20260904054259 26 30 3.2 3.2 0.00 0.00 0.00 90 1014.2
20260904053754 26 347 0.0 0.0 0.00 0.00 0.00 90 1014.2
20260904053253 26 343 0.0 1.6 0.00 0.00 0.00 90 1014.2
20260904052750 26 180 1.6 1.6 0.00 0.00 0.00 90 1014.5
20260904052245 26 105 0.0 1.6 0.00 0.00 0.00 89 1014.5
20260904051742 26 349 0.0 0.0 0.00 0.00 0.00 89 1014.7
20260904051237 26 258 3.2 3.2 0.00 0.00 0.00 89 1014.6
20260904050732 26 193 3.2 4.8 0.00 0.00 0.00 90 1014.4
20260904050228 27 242 3.2 4.8 0.00 0.00 0.00 89 1014.5
20260904045723 27 164 4.8 4.8 0.00 0.00 0.00 89 1014.5
20260904045218 27 232 0.0 0.0 0.00 0.00 0.00 89 1014.4
20260904044712 27 254 1.6 1.6 0.00 0.00 0.00 89 1014.6
20260904044209 27 216 1.6 1.6 0.00 0.00 0.00 89 1014.6
20260904043705 27 258 3.2 3.2 0.00 0.00 0.00 89 1014.7
20260904043201 27 146 0.0 0.0 0.00 0.00 0.00 88 1014.6
20260904042657 27 313 3.2 4.8 0.00 0.00 0.00 88 1014.6
20260904042153 27 359 4.8 4.8 0.00 0.00 0.00 88 1014.5
20260904041647 27 187 3.2 4.8 0.00 0.00 0.00 88 1014.7
20260904041143 27 8 1.6 3.2 0.00 0.00 0.00 88 1014.7
20260904040639 27 119 1.6 1.6 0.00 0.00 0.00 88 1014.7
20260904040135 27 280 1.6 3.2 0.00 0.00 0.00 88 1014.7
20260904035631 27 340 0.0 0.0 0.00 0.00 0.00 88 1014.6
20260904035130 27 109 0.0 0.0 0.00 0.00 0.00 88 1014.6
20260904034630 27 253 3.2 3.2 0.00 0.00 0.00 88 1014.5
20260904034125 27 180 3.2 4.8 0.00 0.00 0.00 87 1014.6
20260904033621 27 237 1.6 1.6 0.00 0.00 0.00 87 1014.6
20260904033119 27 190 3.2 3.2 0.00 0.00 0.00 87 1014.6
20260904032614 27 231 0.0 0.0 0.00 0.00 0.00 87 1014.7
20260904032113 27 252 1.6 1.6 0.00 0.00 0.00 86 1014.7
20260904031612 27 309 1.6 3.2 0.00 0.00 0.00 86 1014.7
20260904031108 27 220 1.6 1.6 0.00 0.00 0.00 85 1014.8
20260904030604 27 225 0.0 1.6 0.00 0.00 0.00 85 1014.5
20260904030059 27 205 0.0 1.6 0.00 0.00 0.00 85 1014.8
20260904025554 28 191 1.6 1.6 0.00 0.00 0.00 85 1014.8
20260904025049 28 203 0.0 0.0 0.00 0.00 0.00 85 1014.6
20260904024545 28 210 1.6 1.6 0.00 0.00 0.00 84 1014.8
20260904024041 28 341 1.6 1.6 0.00 0.00 0.00 85 1014.6
20260904023537 28 161 1.6 3.2 0.00 0.00 0.00 84 1015.0
20260904023033 28 214 1.6 3.2 0.00 0.00 0.00 84 1014.9
20260904022533 28 180 4.8 8.0 0.00 0.00 0.00 84 1014.9
20260904022030 28 184 4.8 4.8 0.00 0.00 0.00 84 1014.9
20260904021525 28 200 1.6 1.6 0.00 0.00 0.00 84 1015.3
20260904021020 28 247 0.0 0.0 0.00 0.00 0.00 84 1015.4
20260904020520 28 191 0.0 0.0 0.00 0.00 0.00 84 1015.1
20260904020015 28 209 1.6 1.6 0.00 0.00 0.00 83 1015.1
20260904015509 28 233 3.2 3.2 0.00 0.00 0.00 83 1015.2
20260904015008 28 125 0.0 1.6 0.00 0.00 0.00 83 1015.4
20260904014503 28 216 0.0 0.0 0.00 0.00 0.00 84 1015.2
20260904013958 28 238 1.6 3.2 0.00 0.00 0.00 84 1015.1
20260904013454 28 190 1.6 1.6 0.00 0.00 0.00 85 1015.1
20260904012951 28 354 0.0 1.6 0.00 0.00 0.00 85 1015.0
20260904012450 28 162 1.6 1.6 0.00 0.00 0.00 85 1014.9
20260904011944 28 220 0.0 0.0 0.00 0.00 0.00 86 1014.9
20260904011439 28 5 0.0 0.0 0.00 0.00 0.00 85 1015.0
20260904010935 28 10 0.0 0.0 0.00 0.00 0.00 85 1014.8
20260904010431 28 353 0.0 0.0 0.00 0.00 0.00 84 1014.8
20260904005926 28 192 0.0 1.6 0.00 0.00 0.00 84 1014.8
20260904005422 29 239 0.0 1.6 0.00 0.00 0.00 83 1014.3
20260904004921 29 137 0.0 0.0 0.00 0.00 0.00 83 1014.4
20260904004418 30 182 1.6 3.2 0.00 0.00 0.00 82 1014.1
20260904003919 30 88 1.6 1.6 0.00 0.00 0.00 82 1014.2
20260904003414 30 219 1.6 3.2 0.00 0.00 0.00 82 1014.1
20260904002909 30 267 0.0 1.6 0.00 0.00 0.00 81 1014.0
20260904002406 30 251 4.8 8.0 0.00 0.00 0.00 82 1013.8
20260904001904 30 207 1.6 1.6 0.00 0.00 0.00 83 1013.4
20260904001400 30 182 3.2 3.2 0.00 0.00 0.00 83 1013.5
20260904000855 28 82 3.2 4.8 0.00 0.00 0.00 85 1013.5
20260904000355 28 227 3.2 4.8 0.00 0.00 0.00 91 1013.4
20260903235855 28 357 0.0 0.0 0.00 0.00 0.00 91 1013.4
20260903235351 28 357 0.0 0.0 0.00 0.00 0.00 91 1013.2
20260903234850 28 354 0.0 0.0 0.00 0.00 0.00 91 1013.1
20260903234346 28 354 0.0 0.0 0.00 0.00 0.00 91 1013.0
20260903233842 28 354 0.0 0.0 0.00 0.00 0.00 90 1013.1
20260903233338 28 354 0.0 0.0 0.00 0.00 0.00 90 1012.9
20260903232837 28 354 0.0 0.0 0.00 0.00 0.00 90 1012.8
20260903232333 28 354 0.0 0.0 0.00 0.00 0.00 90 1012.9
20260903231832 28 356 0.0 0.0 0.00 0.00 0.00 90 1013.0
20260903231328 28 356 0.0 0.0 0.00 0.00 0.00 89 1012.9
20260903230823 28 355 0.0 0.0 0.00 0.00 0.00 89 1013.0
20260903230318 28 356 0.0 0.0 0.00 0.00 0.00 89 1013.1
20260903225814 29 354 0.0 0.0 0.00 0.00 0.00 88 1013.1
20260903225310 29 354 0.0 0.0 0.00 0.00 0.00 88 1013.0
20260903224807 29 353 0.0 0.0 0.00 0.00 0.00 88 1013.0
20260903224302 29 3 0.0 0.0 0.00 0.00 0.00 88 1012.8
20260903223758 30 355 0.0 0.0 0.00 0.00 0.00 88 1013.0
20260903223256 30 356 0.0 0.0 0.00 0.00 0.00 88 1013.0
20260903222751 30 359 0.0 1.6 0.00 0.00 0.00 87 1012.9
20260903222250 30 341 0.0 0.0 0.00 0.00 0.00 87 1012.9
20260903221745 30 2 0.0 0.0 0.00 0.00 0.00 87 1013.0
20260903221244 30 353 0.0 0.0 0.00 0.00 0.00 86 1012.9
20260903220742 30 346 0.0 0.0 0.00 0.00 0.00 86 1013.2
20260903220237 31 351 0.0 0.0 0.00 0.00 0.00 85 1013.1
20260903215736 31 349 0.0 0.0 0.00 0.00 0.00 85 1013.1
20260903215232 31 346 0.0 0.0 0.00 0.00 0.00 84 1013.1
20260903214729 31 328 0.0 0.0 0.00 0.00 0.00 84 1013.2
20260903214226 32 358 0.0 0.0 0.00 0.00 0.00 84 1013.1
20260903213720 32 355 0.0 0.0 0.00 0.00 0.00 82 1013.2
20260903213216 32 9 0.0 0.0 0.00 0.00 0.00 80 1013.2
20260903212712 32 318 0.0 1.6 0.00 0.00 0.00 80 1013.3
20260903212208 32 6 0.0 0.0 0.00 0.00 0.00 79 1013.2
20260903211707 32 306 0.0 0.0 0.00 0.00 0.00 79 1013.2
20260903211204 32 323 0.0 0.0 0.00 0.00 0.00 79 1013.3
20260903210700 33 9 0.0 0.0 0.00 0.00 0.00 77 1013.4
20260903210155 33 341 0.0 0.0 0.00 0.00 0.00 77 1013.3
20260903205655 33 8 0.0 0.0 0.00 0.00 0.00 76 1013.2
20260903205153 33 330 0.0 1.6 0.00 0.00 0.00 74 1013.3
20260903204649 34 244 0.0 0.0 0.00 0.00 0.00 71 1013.5
20260903204146 34 16 0.0 0.0 0.00 0.00 0.00 71 1013.3
20260903203641 35 43 0.0 0.0 0.00 0.00 0.00 70 1013.6
20260903203136 35 295 0.0 0.0 0.00 0.00 0.00 66 1013.5
20260903202631 36 216 0.0 1.6 0.00 0.00 0.00 63 1013.6
20260903202126 36 283 0.0 0.0 0.00 0.00 0.00 62 1013.6
20260903201620 36 272 1.6 1.6 0.00 0.00 0.00 61 1013.9
20260903201120 36 350 0.0 0.0 0.00 0.00 0.00 63 1014.0
20260903200615 36 285 0.0 0.0 0.00 0.00 0.00 62 1013.9
20260903200110 36 200 1.6 3.2 0.00 0.00 0.00 63 1014.3
20260903195606 35 257 0.0 0.0 0.00 0.00 0.00 63 1014.1
20260903195101 35 304 1.6 1.6 0.00 0.00 0.00 63 1014.0
20260903194556 35 107 4.8 4.8 0.00 0.00 0.00 64 1014.1
20260903194051 35 109 0.0 1.6 0.00 0.00 0.00 69 1014.0
20260903193548 35 167 1.6 3.2 0.00 0.00 0.00 67 1014.2
20260903193043 35 191 1.6 3.2 0.00 0.00 0.00 68 1014.2
20260903192539 35 225 0.0 1.6 0.00 0.00 0.00 67 1014.4
20260903192034 35 179 1.6 3.2 0.00 0.00 0.00 67 1014.3
20260903191531 35 176 3.2 3.2 0.00 0.00 0.00 65 1014.3
20260903191025 35 212 3.2 4.8 0.00 0.00 0.00 66 1014.3
20260903190524 35 144 4.8 8.0 0.00 0.00 0.00 66 1014.5
20260903190024 35 220 0.0 0.0 0.00 0.00 0.00 68 1014.4
20260903185520 34 342 0.0 0.0 0.00 0.00 0.00 66 1014.6
20260903185015 35 132 4.8 4.8 0.00 0.00 0.00 64 1014.6
20260903184512 36 275 0.0 0.0 0.00 0.00 0.00 64 1014.6
20260903184011 35 226 0.0 1.6 0.00 0.00 0.00 64 1014.5
20260903183511 34 234 0.0 0.0 0.00 0.00 0.00 67 1014.6
20260903183006 34 243 1.6 3.2 0.00 0.00 0.00 69 1014.7
20260903182504 33 172 1.6 3.2 0.00 0.00 0.00 68 1014.7
20260903182000 33 256 0.0 0.0 0.00 0.00 0.00 68 1014.8
20260903181454 33 199 1.6 1.6 0.00 0.00 0.00 69 1014.6
20260903180953 33 156 1.6 3.2 0.00 0.00 0.00 68 1014.6
20260903180448 35 155 1.6 1.6 0.00 0.00 0.00 67 1014.6
20260903175948 35 149 3.2 3.2 0.00 0.00 0.00 66 1014.9
20260903175442 35 190 3.2 3.2 0.00 0.00 0.00 65 1014.9
20260903174941 33 105 0.0 0.0 0.00 0.00 0.00 66 1014.8
20260903174437 33 105 1.6 1.6 0.00 0.00 0.00 72 1015.1
20260903173936 33 150 4.8 8.0 0.00 0.00 0.00 69 1015.2
20260903173431 32 227 4.8 4.8 0.00 0.00 0.00 71 1015.1
20260903172927 32 162 1.6 1.6 0.00 0.00 0.00 72 1015.1
20260903172422 32 103 3.2 3.2 0.00 0.00 0.00 71 1015.2
20260903171918 32 146 4.8 4.8 0.00 0.00 0.00 70 1015.4
20260903171413 32 139 4.8 9.7 0.00 0.00 0.00 70 1015.3
20260903170912 32 149 3.2 3.2 0.00 0.00 0.00 70 1015.5
20260903170408 32 175 1.6 1.6 0.00 0.00 0.00 73 1015.7
20260903165906 32 151 1.6 3.2 0.00 0.00 0.00 74 1015.4
20260903165401 31 140 3.2 3.2 0.00 0.00 0.00 75 1015.6
20260903164855 31 146 4.8 4.8 0.00 0.00 0.00 75 1015.8
20260903164351 31 157 3.2 3.2 0.00 0.00 0.00 76 1015.6
20260903163850 31 136 1.6 3.2 0.00 0.00 0.00 76 1015.8
20260903163346 32 292 0.0 1.6 0.00 0.00 0.00 75 1015.7
20260903162842 32 155 3.2 3.2 0.00 0.00 0.00 76 1015.7
20260903162339 32 226 3.2 4.8 0.00 0.00 0.00 75 1015.5
20260903161834 32 248 0.0 1.6 0.00 0.00 0.00 76 1015.8
20260903161329 31 125 0.0 1.6 0.00 0.00 0.00 76 1016.0
20260903160825 31 87 4.8 8.0 0.00 0.00 0.00 75 1016.0
20260903160324 31 156 0.0 0.0 0.00 0.00 0.00 75 1016.1
20260903155822 31 179 1.6 1.6 0.00 0.00 0.00 76 1016.0
20260903155318 31 144 3.2 4.8 0.00 0.00 0.00 77 1016.2
20260903154813 31 136 4.8 4.8 0.00 0.00 0.00 77 1016.0
20260903154309 31 145 4.8 4.8 0.00 0.00 0.00 77 1016.2
20260903153805 31 129 4.8 4.8 0.00 0.00 0.00 76 1016.2
20260903153300 30 100 1.6 1.6 0.00 0.00 0.00 77 1016.3
20260903152756 30 80 3.2 3.2 0.00 0.00 0.00 78 1016.5
20260903152252 30 120 1.6 1.6 0.00 0.00 0.00 78 1016.3
20260903151752 30 128 3.2 3.2 0.00 0.00 0.00 77 1016.5
20260903151247 30 138 3.2 4.8 0.00 0.00 0.00 78 1016.5
20260903150748 30 120 1.6 1.6 0.00 0.00 0.00 78 1016.1
20260903150242 30 109 1.6 3.2 0.00 0.00 0.00 78 1016.4
20260903145737 30 131 4.8 4.8 0.00 0.00 0.00 77 1016.4
20260903145232 30 118 0.0 0.0 0.00 0.00 0.00 78 1016.2
20260903144731 30 176 3.2 3.2 0.00 0.00 0.00 80 1016.3
20260903144227 29 162 3.2 4.8 0.00 0.00 0.00 81 1016.2
20260903143723 28 166 1.6 1.6 0.00 0.00 0.00 82 1016.4
20260903143219 28 183 3.2 4.8 0.00 0.00 0.00 81 1016.4
20260903142714 28 114 3.2 3.2 0.00 0.00 0.00 82 1016.2
20260903142211 28 152 4.8 4.8 0.00 0.00 0.00 81 1016.2
20260903141706 28 141 0.0 1.6 0.00 0.00 0.00 82 1016.4
20260903141201 28 144 4.8 8.0 0.00 0.00 0.00 81 1016.3
20260903140657 28 15 1.6 1.6 0.00 0.00 0.00 82 1016.2
20260903140151 27 165 3.2 3.2 0.00 0.00 0.00 83 1016.2
20260903135647 27 154 0.0 1.6 0.00 0.00 0.00 83 1016.1
20260903135142 27 166 3.2 4.8 0.00 0.00 0.00 83 1016.0
20260903134641 27 121 0.0 0.0 0.00 0.00 0.00 83 1015.9
20260903134137 27 138 3.2 4.8 0.00 0.00 0.00 83 1015.9
20260903133635 27 210 1.6 3.2 0.00 0.00 0.00 83 1015.9
20260903133131 27 163 3.2 3.2 0.00 0.00 0.00 83 1016.1
20260903132630 27 102 1.6 3.2 0.00 0.00 0.00 82 1016.0
20260903132125 27 200 1.6 3.2 0.00 0.00 0.00 85 1016.0
20260903131620 27 171 3.2 3.2 0.00 0.00 0.00 84 1016.2
20260903131119 27 42 0.0 1.6 0.00 0.00 0.00 85 1016.3
20260903130616 27 86 1.6 4.8 0.00 0.00 0.00 86 1016.3
20260903130108 27 33 1.6 1.6 0.00 0.00 0.00 87 1016.2
20260903125607 27 25 1.6 1.6 0.00 0.00 0.00 87 1016.3